AO-27 - Orbit

View from above orbital plane
View from above orbital plane
View from above satellite
View from above satellite

Ground track
Ground track

The orbit data is extracted from the following two-line orbital elements,

1 22825U 93061C   13139.92434788  .00000104  00000-0  57795-4 0  3873
2 22825 098.6166 084.2502 0008508 019.7633 020.3727 14.29561722 24598
Epoch (UTC): 19 May 2013 22:11:03
Eccentricity: 0.0008508
inclination: 98.6166°
perigee height: 787 km
apogee height: 799 km
right ascension of ascending node: 84.2502°
argument of perigee: 19.7633°
revolutions per day: 14.29561722
mean anomaly at epoch: 20.3727°
orbit number at epoch: 2459

The dashed part of the orbit path shows where the satellite is in the earth's shadow,  

Developed and maintained by Chris Peat, Heavens-Above GmbH. Please read the updated FAQ before sending e-mail. Imprint. DLR